User: anonymous   Login
Location: Chervonnoye
(48.6000°N, 34.4000°E)
Time: 22:50:27
(UTC+00:00)
Language:

UKube-1 - Orbit

View from above orbital plane
View from above orbital plane
View from above satellite
View from above satellite

Ground track
Ground track

The orbit data is extracted from the following two-line orbital elements,

1 40074U 14037F   21335.59154360  .00000628  00000-0  81118-4 0  9996
2 40074  98.4069 200.6781 0003495 197.5024 162.6096 14.84746343400701
Epoch (UTC): 01 December 2021 14:11:49
Eccentricity: 0.0003495
inclination: 98.4069°
perigee height: 612 km
apogee height: 617 km
right ascension of ascending node: 200.6781°
argument of perigee: 197.5024°
revolutions per day: 14.84746343
mean anomaly at epoch: 162.6096°
orbit number at epoch: 40070

The dashed part of the orbit path shows where the satellite is in the earth's shadow,  

DLR